Regional Weather Roundup
Issued by NWS

Home | Current Version | Previous Version | Graphics & Text | Print | Product List | Glossary On
Versions: 1 2 3 4 5 6 7 8 9 10 11 12 13 14 15 16 17 18 19 20 21 22 23 24 25 26 27 28 29 30
000
ASUS45 KBOU 300607
RWRCO

WEATHER ROUNDUP FOR COLORADO
NATIONAL WEATHER SERVICE DENVER/BOULDER CO
1200 AM MDT THU OCT 30 2014

NOTE: "FAIR" INDICATES FEW OR NO CLOUDS BELOW 12000 FEET WITH NO
SIGNIFICANT WEATHER AND/OR OBSTRUCTIONS TO VISIBILITY.

COZ001>005-013-030-031-300700-
...NORTHWEST COLORADO...

CITY           SKY/WX    TMP DP  RH WIND       PRES   REMARKS
CRAIG          CLEAR     29  22  75 SW5       30.34R WCI  24
HAYDEN         CLEAR     37  19  48 CALM      30.35R
MEEKER         CLEAR     34  23  64 VRB5      30.35S WCI  30
MOUNT WERNER   NOT AVBL
STEAMBOAT SPGS CLEAR     34  23  66 CALM      30.35R
WALDEN         CLOUDY    34  21  60 E5        30.35R WCI  30
$$

COZ006>008-011-300700-
...WEST CENTRAL VALLEYS...

CITY           SKY/WX    TMP DP  RH WIND       PRES   REMARKS
GRAND JUNCTION CLEAR     39  19  44 E8        30.30R
MONTROSE       CLEAR     40  22  48 SE9       30.36S
EAGLE          PTCLDY    36  19  51 SE3       30.38S
RIFLE          CLEAR     37  20  50 CALM      30.34R
DELTA          CLEAR     42  21  43 CALM      30.34R
NUCLA          CLEAR     41  16  36 E8        30.37S
$$

COZ017>023-064>068-300700-
...SOUTHWEST COLORADO...

CITY           SKY/WX    TMP DP  RH WIND       PRES   REMARKS
DURANGO        CLEAR     36  23  59 N9        30.33R
CORTEZ         CLEAR     35  17  47 NE9       30.32S WCI  28
PAGOSA SPRINGS CLEAR     33  20  57 CALM      30.38S
TELLURIDE      PTCLDY    37  13  36 CALM      30.47S
WOLF CREEK PAS CLEAR     34  14  44 SW8       30.54S WCI  27
$$

COZ009-010-012-014-032>034-037-058>063-300700-
...CENTRAL COLORADO...

CITY           SKY/WX    TMP DP  RH WIND       PRES   REMARKS
ASPEN          CLEAR     32  18  56 SW8       30.39F WCI  25
BUENA VISTA    CLEAR     42  12  29 N3        30.34S
COPPER MTN     CLEAR     34  14  44 W30G36    30.49F WCI  20
BERTHOUD PASS  FAIR      25  21  86 NW44G53   30.41F WCI   5
COTTONWOOD PAS CLEAR     45   9  23 W17G31    30.41S
GUNNISON       CLEAR     30  10  43 CALM      30.42S
KREMMLING      CLEAR     30  23  74 E3          N/A
LEADVILLE      CLEAR     36  12  37 N10       30.43F
MONARCH PASS   PTCLDY    32  10  40 W28G36    30.59S WCI  18
SALIDA         CLEAR     44  12  27 W3        30.40R
SUNLIGHT       CLEAR     36  14  41 CALM      30.51F
WILKERSON PASS NOT AVBL
$$

COZ069>075-300700-
...SAN LUIS VALLEY/SANGRE DE CRISTO MOUNTAINS...

CITY           SKY/WX    TMP DP  RH WIND       PRES   REMARKS
ALAMOSA        MOCLDY    28  17  63 SW9       30.34R WCI  19
LA VETA PASS   CLEAR     39  10  30 S8        30.42S
SAGUACHE       CLEAR     39  10  30 N7        30.37S
$$

COZ035-036-038>040-300700-
...NORTHERN COLORADO FRONT RANGE...

CITY           SKY/WX    TMP DP  RH WIND       PRES   REMARKS
DENVER INTL AP PTCLDY    46  21  37 S8        30.21R
DMNS CITY PARK   N/A     48  25  41 E3        30.21R
AURORA         PTCLDY    48  21  33 SE6       30.23R
FRONT RANGE AP CLEAR     41  27  56 S6        30.22S
ERIE MUNI ARPT PTCLDY    40  24  53 CALM      30.20R
BOULDER MUN AP PTCLDY    50  25  37 CALM      30.20R
CENTENNIAL     PTCLDY    42  24  49 SE9       30.23R
BROOMFIELD     PTCLDY    55  19  24 SW8       30.22R
FORT COLLINS   CLEAR     50  25  37 NE5       30.21R
LONGMONT       CLEAR     46  26  46 CALM      30.21R
$$

COZ041-046-047-076>085-087-088-300700-
...PIKES PEAK/PALMER DIVIDE AND SOUTHERN FOOTHILLS...

CITY           SKY/WX    TMP DP  RH WIND       PRES   REMARKS
COLO. SPRINGS  PTCLDY    49  17  28 N6        30.27R
A. F. ACADEMY  CLEAR     35  19  53 VRB2      30.27R
ELLICOTT       CLEAR     43  17  35 CALM      30.24R
FALCON         CLEAR     44  15  31 N7        30.28S
FORT CARSON    CLEAR     43  19  38 NW12      30.23R
LIMON          CLEAR     33  20  58 NW5       30.20S WCI  29
MONUMENT HILL  PTCLDY    36  19  51 SE5       30.27S
TRINIDAD       CLEAR     49  17  28 W9        30.22R
$$

COZ042>045-048>051-090-091-300700-
...NORTHEAST COLORADO...

CITY           SKY/WX    TMP DP  RH WIND       PRES   REMARKS
GREELEY ARPT   CLEAR     52  27  37 N22       30.18R
AKRON          PTCLDY    43  25  49 N13       30.16S
BURLINGTON     CLEAR     46  23  40 NW12      30.15R
WRAY           CLEAR     43  24  47 W5        30.13R
STERLING       PTCLDY    39  28  65 W5        30.16R
HOLYOKE        CLEAR     46  27  46 NW9       30.14R
FORT MORGAN    PTCLDY    48  24  38 N15       30.18R
$$

COZ086-089-092>099-300700-
...SOUTHEAST COLORADO...

CITY           SKY/WX    TMP DP  RH WIND       PRES   REMARKS
PUEBLO         CLEAR     44  19  36 W5        30.19R
LA JUNTA       CLEAR     44  23  43 N9        30.16R
LAMAR          CLEAR     36  27  69 CALM      30.12R
SPRINGFIELD      N/A     39  30  70 NW8       30.11F
$$



USA.gov is the U.S. government's official web portal to all federal, state and local government web resources and services.